Home   Weather   Carnarvon   Past weeks
Flag for Australia

Past Weather in Carnarvon, Western Australia, Australia — Yesterday and Last 2 Weeks

Now
58 °F

Cool.


Feels Like: 56 °F
Forecast: 91 / 70 °F
Wind: 9 mph from Southeast

Location: Carnarvon Airport

Current Time: Apr 25, 2019 at 8:41:53 am

Latest Report: Apr 25, 2019 at 6:00 am


Visibility: N/A

Pressure: 30.01 "Hg

Humidity: 72%

Dew Point: 49 °F

Location of CarnarvonLocation

Past Weather in Carnarvon — Graph

°F

Carnarvon Temperature Yesterday

Maximum temperature yesterday: 87 °F (at 11:00 am)
Minimum temperature yesterday: 56 °F (at 6:00 am)
Average temperature yesterday: 72 °F

High & Low Weather Summary for the Past Weeks

 TemperatureHumidityPressure
High87 °F (Apr 24, 11:00 am)100% (Apr 11, 8:00 pm)30.22 "Hg (Apr 11, 8:00 pm)
Low54 °F (Apr 22, 6:00 am)10% (Apr 21, 3:00 pm)29.85 "Hg (Apr 10, 5:00 pm)
Average72 °F68%30.00 "Hg
* Reported Apr 10 6:00 am — Apr 25 6:00 am, Carnarvon. Weather by CustomWeather, © 2019

Note: Actual official high and low records may vary slightly from our data, if they occured in-between our weather recording intervals... More about our weather records

Advertising

Carnarvon Weather History for the Previous 24 Hours

Scroll right to see more
 ConditionsComfort  
Time TempWeatherWind HumidityBarometerVisibility
6:00 am
Thu, Apr 25
58 °FCool.9 mph72%30.01 "HgN/A
5:00 am59 °FCool.7 mph76%30.00 "HgN/A
3:00 am62 °FCool.7 mph77%29.99 "HgN/A
2:00 am64 °FMild.7 mph83%30.00 "HgN/A
12:00 am65 °FMild.8 mph85%30.01 "HgN/A
11:00 pm
Wed, Apr 24
69 °FMild.9 mph86%30.02 "HgN/A
9:00 pm72 °FMild.10 mph83%30.03 "HgN/A
8:00 pm73 °FMild.10 mph75%30.03 "HgN/A
6:00 pm76 °FMild.10 mph59%30.01 "HgN/A
5:00 pm79 °FWarm.13 mph52%29.99 "HgN/A
3:00 pm79 °FPassing clouds.15 mph59%29.98 "Hg18 mi
2:00 pm79 °FWarm.15 mph56%29.99 "HgN/A
12:00 pm80 °FWarm.13 mph53%30.02 "HgN/A
11:00 am87 °FPleasantly warm.7 mph18%30.05 "HgN/A
9:00 am76 °FSunny.13 mph28%30.06 "Hg14 mi
8:00 am69 °FMild.12 mph39%30.06 "HgN/A
Weather by CustomWeather, © 2019

See weather overview